TimePDT,TemperatureF,Dew PointF,Humidity,Sea Level PressureIn,VisibilityMPH,Wind Direction,Wind SpeedMPH,Gust SpeedMPH,PrecipitationIn,Events,Conditions,WindDirDegrees,DateUTC
12:15 AM,44.6,44.6,100,30.02,10.0,Calm,Calm,-,N/A,,Clear,0,2013-10-11 07:15:00
12:35 AM,44.6,44.6,100,30.03,8.0,North,3.5,-,N/A,,Clear,350,2013-10-11 07:35:00
12:55 AM,44.6,44.6,100,30.03,6.0,NNW,4.6,-,N/A,,Clear,340,2013-10-11 07:55:00
1:15 AM,42.8,42.8,100,30.02,7.0,Calm,Calm,-,N/A,,Clear,0,2013-10-11 08:15:00
1:35 AM,41.0,41.0,100,30.03,0.5,Calm,Calm,-,N/A,Fog,Fog,0,2013-10-11 08:35:00
1:55 AM,42.8,42.8,100,30.03,1.0,NNE,3.5,-,N/A,,Clear,20,2013-10-11 08:55:00
2:15 AM,41.0,41.0,100,30.03,0.8,Calm,Calm,-,N/A,,Mist,0,2013-10-11 09:15:00
2:35 AM,41.0,41.0,100,30.04,6.0,NNW,3.5,-,N/A,,Clear,340,2013-10-11 09:35:00
2:55 AM,41.0,41.0,100,30.04,0.2,NNW,4.6,-,N/A,Fog,Fog,330,2013-10-11 09:55:00
3:15 AM,42.8,42.8,100,30.04,0.5,NNW,4.6,-,N/A,Fog,Fog,340,2013-10-11 10:15:00
3:35 AM,42.8,42.8,100,30.04,5.0,NW,3.5,-,N/A,,Overcast,310,2013-10-11 10:35:00
3:55 AM,41.0,41.0,100,30.04,10.0,WNW,3.5,-,N/A,,Mostly Cloudy,300,2013-10-11 10:55:00
4:15 AM,42.8,42.8,100,30.05,10.0,NNW,3.5,-,N/A,,Overcast,330,2013-10-11 11:15:00
4:35 AM,41.0,41.0,100,30.05,1.0,NW,6.9,-,N/A,,Mist,320,2013-10-11 11:35:00
4:55 AM,42.8,42.8,100,30.05,0.8,NNW,6.9,-,N/A,,Mist,340,2013-10-11 11:55:00
5:15 AM,42.8,42.8,100,30.06,1.2,NNW,5.8,-,N/A,,Mist,340,2013-10-11 12:15:00
5:35 AM,42.8,42.8,100,30.06,2.5,NW,4.6,-,N/A,,Mist,320,2013-10-11 12:35:00
5:55 AM,42.8,42.8,100,30.06,8.0,Calm,Calm,-,N/A,,Unknown,0,2013-10-11 12:55:00
6:15 AM,41.0,41.0,100,30.07,10.0,Calm,Calm,-,N/A,,Unknown,0,2013-10-11 13:15:00
6:35 AM,44.6,44.6,100,30.07,8.0,Calm,Calm,-,N/A,,Unknown,0,2013-10-11 13:35:00
6:55 AM,42.8,42.8,100,30.07,7.0,Calm,Calm,-,N/A,,Unknown,0,2013-10-11 13:55:00
7:15 AM,44.6,44.6,100,30.08,7.0,Calm,Calm,-,N/A,,Unknown,0,2013-10-11 14:15:00
7:35 AM,44.6,44.6,100,30.09,5.0,Calm,Calm,-,N/A,,Mist,0,2013-10-11 14:35:00
7:55 AM,44.6,44.6,100,30.09,2.5,NW,3.5,-,N/A,,Mist,320,2013-10-11 14:55:00
8:15 AM,46.4,46.4,100,30.09,5.0,WNW,3.5,-,N/A,,Mist,300,2013-10-11 15:15:00
8:35 AM,46.4,46.4,100,30.10,7.0,NNW,6.9,-,N/A,,Unknown,330,2013-10-11 15:35:00
8:55 AM,46.4,46.4,100,30.11,9.0,NNW,6.9,-,N/A,,Overcast,340,2013-10-11 15:55:00
9:15 AM,48.2,48.2,100,30.10,10.0,NNW,8.1,-,N/A,,Overcast,340,2013-10-11 16:15:00
9:35 AM,48.2,48.2,100,30.11,10.0,NNW,6.9,-,N/A,,Overcast,340,2013-10-11 16:35:00
9:55 AM,50.0,50.0,100,30.11,10.0,NNW,6.9,-,N/A,,Overcast,340,2013-10-11 16:55:00
10:15 AM,51.8,50.0,94,30.11,10.0,North,9.2,-,N/A,,Mostly Cloudy,10,2013-10-11 17:15:00
10:35 AM,51.8,48.2,88,30.10,10.0,NNE,6.9,-,N/A,,Mostly Cloudy,20,2013-10-11 17:35:00
10:55 AM,53.6,48.2,82,30.10,10.0,North,9.2,-,N/A,,Partly Cloudy,10,2013-10-11 17:55:00
11:15 AM,55.4,48.2,77,30.10,10.0,North,8.1,-,N/A,,Clear,360,2013-10-11 18:15:00
11:35 AM,57.2,48.2,72,30.09,10.0,North,8.1,-,N/A,,Clear,10,2013-10-11 18:35:00
11:55 AM,57.2,48.2,72,30.09,10.0,North,6.9,-,N/A,,Clear,10,2013-10-11 18:55:00
12:15 PM,59.0,48.2,67,30.09,10.0,North,8.1,-,N/A,,Clear,360,2013-10-11 19:15:00
12:35 PM,62.6,48.2,59,30.08,10.0,North,4.6,-,N/A,,Clear,360,2013-10-11 19:35:00
12:55 PM,62.6,48.2,59,30.07,10.0,SSW,4.6,-,N/A,,Clear,210,2013-10-11 19:55:00
1:15 PM,64.4,48.2,56,30.06,10.0,Calm,Calm,-,N/A,,Clear,0,2013-10-11 20:15:00
1:35 PM,66.2,46.4,49,30.05,10.0,South,4.6,-,N/A,,Clear,190,2013-10-11 20:35:00
1:55 PM,68.0,46.4,46,30.04,10.0,WSW,3.5,-,N/A,,Clear,240,2013-10-11 20:55:00
2:15 PM,68.0,46.4,46,30.03,10.0,SE,4.6,-,N/A,,Clear,140,2013-10-11 21:15:00
2:35 PM,71.6,46.4,41,30.02,10.0,SSE,3.5,-,N/A,,Clear,150,2013-10-11 21:35:00
2:55 PM,71.6,46.4,41,30.02,10.0,North,10.4,-,N/A,,Clear,350,2013-10-11 21:55:00
3:15 PM,69.8,48.2,46,30.02,10.0,North,11.5,-,N/A,,Clear,350,2013-10-11 22:15:00
3:35 PM,71.6,48.2,43,30.02,10.0,North,11.5,-,N/A,,Clear,350,2013-10-11 22:35:00
3:55 PM,69.8,48.2,46,30.01,10.0,NNW,10.4,-,N/A,,Clear,340,2013-10-11 22:55:00
4:15 PM,69.8,48.2,46,30.01,10.0,NNW,11.5,-,N/A,,Clear,340,2013-10-11 23:15:00
4:35 PM,68.0,46.4,46,30.00,10.0,NNW,9.2,-,N/A,,Clear,340,2013-10-11 23:35:00
4:55 PM,68.0,46.4,46,30.00,10.0,NNW,10.4,-,N/A,,Clear,340,2013-10-11 23:55:00
5:15 PM,66.2,44.6,46,30.00,10.0,NNW,12.7,-,N/A,,Clear,340,2013-10-12 00:15:00
5:35 PM,64.4,46.4,52,29.99,10.0,North,6.9,-,N/A,,Clear,350,2013-10-12 00:35:00
5:55 PM,62.6,46.4,55,30.00,10.0,North,8.1,-,N/A,,Clear,360,2013-10-12 00:55:00
6:15 PM,59.0,46.4,63,30.00,10.0,North,8.1,-,N/A,,Clear,350,2013-10-12 01:15:00
6:35 PM,55.4,46.4,72,30.00,10.0,North,5.8,-,N/A,,Clear,360,2013-10-12 01:35:00
6:55 PM,53.6,46.4,77,29.99,10.0,NNW,5.8,-,N/A,,Clear,330,2013-10-12 01:55:00
7:15 PM,53.6,46.4,77,30.00,10.0,NNE,4.6,-,N/A,,Clear,20,2013-10-12 02:15:00
7:35 PM,50.0,46.4,87,30.00,10.0,North,5.8,-,N/A,,Clear,360,2013-10-12 02:35:00
7:55 PM,48.2,46.4,93,30.01,10.0,North,5.8,-,N/A,,Clear,350,2013-10-12 02:55:00
8:15 PM,48.2,46.4,93,30.00,10.0,NNW,4.6,-,N/A,,Clear,340,2013-10-12 03:15:00
8:35 PM,48.2,46.4,93,30.01,10.0,North,5.8,-,N/A,,Clear,360,2013-10-12 03:35:00
8:55 PM,46.4,46.4,100,30.01,10.0,NNE,3.5,-,N/A,,Clear,20,2013-10-12 03:55:00
9:15 PM,46.4,46.4,100,30.01,10.0,North,3.5,-,N/A,,Clear,360,2013-10-12 04:15:00
9:35 PM,44.6,44.6,100,30.02,10.0,North,4.6,-,N/A,,Clear,350,2013-10-12 04:35:00
9:55 PM,44.6,44.6,100,30.02,10.0,NNW,3.5,-,N/A,,Clear,340,2013-10-12 04:55:00
10:15 PM,44.6,44.6,100,30.02,10.0,NNW,4.6,-,N/A,,Clear,340,2013-10-12 05:15:00
10:35 PM,42.8,42.8,100,30.02,7.0,North,4.6,-,N/A,,Clear,10,2013-10-12 05:35:00
10:55 PM,42.8,42.8,100,30.02,0.2,North,4.6,-,N/A,Fog,Fog,350,2013-10-12 05:55:00
11:15 PM,44.6,44.6,100,30.02,0.8,NW,3.5,-,N/A,,Overcast,320,2013-10-12 06:15:00
11:35 PM,44.6,44.6,100,30.02,2.0,Calm,Calm,-,N/A,,Overcast,0,2013-10-12 06:35:00
11:55 PM,42.8,42.8,100,30.02,0.5,NNW,3.5,-,N/A,Fog,Fog,340,2013-10-12 06:55:00